This is the latest recevied weather packets stored in our database for station/object IV3ONZ. If no packets are shown the sender has not sent any weather packets the latest 10 day(s).
| Time | Temp. | Humidity | Pressure | Rain* | Wind** | Luminosity | Snow |
|---|---|---|---|---|---|---|---|
| 1778023803 | 15.56° C | 86% | 1015.7 hPa | 0 mm | - | 0 W/m² | - |
| 1778023504 | 15.56° C | 86% | 1015.8 hPa | 0 mm | - | 0 W/m² | - |
| 1778023204 | 15.56° C | 86% | 1015.8 hPa | 0 mm | - | 0 W/m² | - |
| 1778022135 | 15.56° C | 85% | 1016.1 hPa | 0 mm | - | 0 W/m² | - |
| 1778020803 | 15° C | 86% | 1016 hPa | 0 mm | - | 0 W/m² | - |
| 1778019004 | 14.44° C | 89% | 1016.1 hPa | 0 mm | - | 0 W/m² | - |
| 1778018104 | 14.44° C | 89% | 1016.5 hPa | 0 mm | - | 0 W/m² | - |
| 1778017634 | 14.44° C | 89% | 1016.1 hPa | 0 mm | - | 0 W/m² | - |
| 1778017204 | 14.44° C | 89% | 1016.2 hPa | 0 mm | - | 0 W/m² | - |
| 1778016304 | 14.44° C | 91% | 1016.3 hPa | 0 mm | - | 0 W/m² | - |
| 1778012705 | 14.44° C | 91% | 1016.6 hPa | 0.51 mm | - | 0 W/m² | - |
| 1778011804 | 14.44° C | 91% | 1016.6 hPa | 0.51 mm | - | 0 W/m² | - |
| 1778008503 | 14.44° C | 92% | 1016.4 hPa | 0 mm | - | 0 W/m² | - |
| 1778007905 | 14.44° C | 92% | 1016.2 hPa | 0 mm | - | 0 W/m² | - |
| 1778007305 | 14.44° C | 92% | 1016.5 hPa | 0 mm | - | 0 W/m² | - |
| 1778006704 | 14.44° C | 92% | 1016.3 hPa | 0 mm | - | 0 W/m² | - |
| 1778006403 | 14.44° C | 92% | 1016.4 hPa | 0 mm | - | 0 W/m² | - |
| 1778005633 | 14.44° C | 91% | 1016.4 hPa | 0 mm | - | 0 W/m² | - |
| 1778005204 | 14.44° C | 91% | 1016.1 hPa | 0 mm | - | 1 W/m² | - |
| 1778003104 | 14.44° C | 90% | 1016.3 hPa | 0 mm | - | 7 W/m² | - |
| 1778002804 | 14.44° C | 90% | 1016.1 hPa | 0 mm | - | 4 W/m² | - |
| 1778001004 | 13.89° C | 91% | 1016.3 hPa | 0 mm | - | 10 W/m² | - |
| 1778000404 | 13.89° C | 91% | 1016.4 hPa | 0 mm | - | 14 W/m² | - |
| 1778000104 | 13.89° C | 91% | 1016.2 hPa | 0 mm | - | 18 W/m² | - |
| 1777998304 | 13.89° C | 93% | 1016.4 hPa | 0 mm | - | 55 W/m² | - |
* Rain latest hour (hover to see other rain measurements)
** Current wind speed in m/s (hover to see current wind gust speed)